• In United Kingdom
  • List of Countries
  • For 7 days
  • Water Temperature
  • Satellite Maps
  • Weather Map
  • Weather Widgets
  • user-avatar
    Login

    Hourly Weather Limón

    Today, 16 December, Saturday

    Time Temperature Precipitation Wind Pressure Humidity
    00:00 +24°C° 0 mm 2 mps 759 mmHg 80%
    01:00 +25°C° 0 mm 2 mps 759 mmHg 81%
    02:00 +25°C° 0 mm 2 mps 759 mmHg 82%
    03:00 +25°C° 0 mm 2 mps 759 mmHg 83%
    04:00 +25°C° 0 mm 2 mps 759 mmHg 84%
    05:00 +25°C° 0 mm 2 mps 759 mmHg 84%
    06:00 +26°C° 0 mm 1 mps 759 mmHg 84%
    07:00 +27°C° 0.1 mm 1 mps 759 mmHg 78%
    08:00 +29°C° 0.1 mm 1 mps 760 mmHg 72%
    09:00 +31°C° 0.1 mm 1 mps 760 mmHg 67%
    10:00 +32°C° 0.1 mm 1 mps 759 mmHg 65%
    11:00 +32°C° 0.1 mm 1 mps 759 mmHg 63%
    12:00 +34°C° 0.1 mm 2 mps 759 mmHg 61%
    13:00 +32°C° 0.2 mm 2 mps 758 mmHg 62%
    14:00 +32°C° 0.2 mm 2 mps 758 mmHg 63%
    15:00 +31°C° 0.2 mm 2 mps 757 mmHg 64%
    16:00 +29°C° 0.2 mm 2 mps 757 mmHg 71%
    17:00 +27°C° 0.2 mm 2 mps 758 mmHg 79%
    18:00 +25°C° 0.2 mm 2 mps 758 mmHg 86%
    19:00 +25°C° 0.1 mm 2 mps 758 mmHg 84%
    20:00 +25°C° 0.1 mm 3 mps 759 mmHg 83%
    21:00 +25°C° 0.1 mm 3 mps 759 mmHg 81%
    22:00 +25°C° 0.3 mm 3 mps 759 mmHg 81%
    23:00 +25°C° 0.3 mm 3 mps 759 mmHg 82%

    Tomorrow, 17 December, Sunday

    Time Temperature Precipitation Wind Pressure Humidity
    00:00 +24°C° 0.3 mm 3 mps 759 mmHg 83%
    01:00 +25°C° 0.2 mm 3 mps 759 mmHg 83%
    02:00 +25°C° 0.2 mm 3 mps 758 mmHg 84%
    03:00 +25°C° 0.2 mm 3 mps 758 mmHg 85%
    04:00 +25°C° 0.1 mm 3 mps 758 mmHg 85%
    05:00 +25°C° 0.1 mm 3 mps 759 mmHg 85%
    06:00 +24°C° 0.1 mm 3 mps 759 mmHg 85%
    07:00 +27°C° 0 mm 2 mps 759 mmHg 74%
    08:00 +29°C° 0 mm 2 mps 760 mmHg 63%
    09:00 +32°C° 0 mm 2 mps 760 mmHg 52%
    10:00 +32°C° 0.1 mm 2 mps 760 mmHg 54%
    11:00 +34°C° 0.1 mm 2 mps 759 mmHg 56%
    12:00 +34°C° 0.1 mm 2 mps 759 mmHg 59%
    13:00 +32°C° 0.1 mm 2 mps 758 mmHg 63%
    14:00 +31°C° 0.1 mm 2 mps 758 mmHg 67%
    15:00 +30°C° 0.1 mm 2 mps 757 mmHg 71%
    16:00 +29°C° 0.2 mm 2 mps 757 mmHg 77%
    17:00 +28°C° 0.2 mm 2 mps 758 mmHg 82%
    18:00 +26°C° 0.2 mm 2 mps 758 mmHg 87%
    19:00 +26°C° 0.3 mm 2 mps 758 mmHg 87%
    20:00 +25°C° 0.3 mm 3 mps 759 mmHg 87%
    21:00 +25°C° 0.3 mm 3 mps 759 mmHg 87%
    22:00 +25°C° 0.3 mm 3 mps 759 mmHg 86%
    23:00 +25°C° 0.3 mm 3 mps 759 mmHg 86%

    Day after tomorrow, 18 December, Monday

    Time Temperature Precipitation Wind Pressure Humidity
    00:00 +25°C° 0.3 mm 3 mps 759 mmHg 85%
    01:00 +25°C° 0.3 mm 3 mps 758 mmHg 85%
    02:00 +25°C° 0.3 mm 2 mps 758 mmHg 84%
    03:00 +25°C° 0.3 mm 2 mps 758 mmHg 83%
    04:00 +26°C° 0.3 mm 2 mps 758 mmHg 84%
    05:00 +26°C° 0.3 mm 2 mps 758 mmHg 85%
    06:00 +26°C° 0.3 mm 2 mps 759 mmHg 86%
    07:00 +26°C° 0.5 mm 2 mps 759 mmHg 84%
    08:00 +27°C° 0.5 mm 2 mps 760 mmHg 83%
    09:00 +28°C° 0.5 mm 2 mps 760 mmHg 81%
    10:00 +29°C° 0.2 mm 2 mps 760 mmHg 76%
    11:00 +31°C° 0.2 mm 3 mps 760 mmHg 70%
    12:00 +33°C° 0.2 mm 3 mps 759 mmHg 65%
    13:00 +32°C° 0.1 mm 2 mps 758 mmHg 65%
    14:00 +32°C° 0.1 mm 2 mps 758 mmHg 64%
    15:00 +31°C° 0.1 mm 2 mps 757 mmHg 64%
    16:00 +30°C° 0.3 mm 2 mps 757 mmHg 72%
    17:00 +28°C° 0.3 mm 2 mps 758 mmHg 80%
    18:00 +26°C° 0.3 mm 2 mps 758 mmHg 88%
    19:00 +26°C° 0.2 mm 2 mps 759 mmHg 84%
    20:00 +26°C° 0.2 mm 2 mps 759 mmHg 81%
    21:00 +26°C° 0.2 mm 2 mps 760 mmHg 78%
    22:00 +25°C° 0.2 mm 2 mps 760 mmHg 80%
    23:00 +25°C° 0.2 mm 2 mps 760 mmHg 82%

    19 December, Tuesday

    Time Temperature Precipitation Wind Pressure Humidity
    00:00 +25°C° 0.2 mm 3 mps 759 mmHg 83%
    01:00 +25°C° 0.1 mm 2 mps 759 mmHg 84%
    02:00 +25°C° 0.1 mm 2 mps 759 mmHg 84%
    03:00 +25°C° 0.1 mm 2 mps 758 mmHg 85%
    04:00 +25°C° 0 mm 2 mps 759 mmHg 84%
    05:00 +25°C° 0 mm 2 mps 759 mmHg 84%
    06:00 +25°C° 0 mm 2 mps 759 mmHg 84%
    07:00 +27°C° 0 mm 2 mps 760 mmHg 74%
    08:00 +30°C° 0 mm 2 mps 760 mmHg 65%
    09:00 +32°C° 0 mm 2 mps 760 mmHg 55%
    10:00 +34°C° 0 mm 2 mps 760 mmHg 54%
    11:00 +33°C° 0 mm 1 mps 759 mmHg 54%
    12:00 +34°C° 0 mm 1 mps 758 mmHg 53%
    13:00 +34°C° 0.1 mm 2 mps 758 mmHg 56%
    14:00 +32°C° 0.1 mm 2 mps 757 mmHg 60%
    15:00 +33°C° 0.1 mm 3 mps 757 mmHg 63%
    16:00 +30°C° 0.2 mm 2 mps 757 mmHg 71%
    17:00 +28°C° 0.2 mm 2 mps 757 mmHg 80%
    18:00 +26°C° 0.2 mm 2 mps 758 mmHg 88%
    19:00 +26°C° 0.3 mm 2 mps 758 mmHg 86%
    20:00 +26°C° 0.3 mm 2 mps 759 mmHg 84%
    21:00 +25°C° 0.3 mm 2 mps 759 mmHg 82%
    22:00 +25°C° 0.6 mm 2 mps 759 mmHg 81%
    23:00 +25°C° 0.6 mm 2 mps 759 mmHg 80%

    20 December, Wednesday

    Time Temperature Precipitation Wind Pressure Humidity
    00:00 +25°C° 0.6 mm 3 mps 759 mmHg 79%
    01:00 +25°C° 1 mm 3 mps 758 mmHg 81%
    02:00 +25°C° 1 mm 3 mps 758 mmHg 82%
    03:00 +25°C° 1 mm 3 mps 758 mmHg 84%
    04:00 +25°C° 0.9 mm 3 mps 758 mmHg 86%
    05:00 +25°C° 0.9 mm 3 mps 758 mmHg 88%
    06:00 +25°C° 0.9 mm 3 mps 759 mmHg 90%
    07:00 +27°C° 0.3 mm 2 mps 759 mmHg 84%
    08:00 +29°C° 0.3 mm 2 mps 759 mmHg 78%
    09:00 +31°C° 0.3 mm 2 mps 760 mmHg 72%
    10:00 +31°C° 0.5 mm 2 mps 759 mmHg 69%
    11:00 +32°C° 0.5 mm 2 mps 758 mmHg 67%
    12:00 +34°C° 0.5 mm 2 mps 758 mmHg 64%
    13:00 +32°C° 0.7 mm 2 mps 757 mmHg 67%
    14:00 +31°C° 0.7 mm 2 mps 757 mmHg 70%
    15:00 +31°C° 0.7 mm 2 mps 756 mmHg 73%
    16:00 +29°C° 0.7 mm 2 mps 756 mmHg 78%
    17:00 +28°C° 0.7 mm 1 mps 757 mmHg 83%
    18:00 +26°C° 0.7 mm 1 mps 757 mmHg 88%
    19:00 +26°C° 0.7 mm 2 mps 758 mmHg 86%
    20:00 +26°C° 0.7 mm 2 mps 758 mmHg 84%
    21:00 +26°C° 0.7 mm 2 mps 758 mmHg 82%
    22:00 +26°C° 0.7 mm 2 mps 758 mmHg 82%
    23:00 +26°C° 0.7 mm 2 mps 758 mmHg 81%

    21 December, Thursday

    Time Temperature Precipitation Wind Pressure Humidity
    00:00 +26°C° 0.7 mm 2 mps 757 mmHg 81%
    01:00 +26°C° 1.4 mm 2 mps 757 mmHg 82%
    02:00 +26°C° 1.4 mm 2 mps 757 mmHg 83%
    03:00 +26°C° 1.4 mm 2 mps 757 mmHg 85%
    04:00 +26°C° 1.2 mm 2 mps 757 mmHg 86%
    05:00 +26°C° 1.2 mm 2 mps 758 mmHg 88%
    06:00 +26°C° 1.2 mm 2 mps 758 mmHg 90%
    07:00 +27°C° 0.2 mm 2 mps 759 mmHg 84%
    08:00 +29°C° 0.2 mm 2 mps 759 mmHg 78%
    09:00 +31°C° 0.2 mm 2 mps 759 mmHg 72%
    10:00 +31°C° 0.3 mm 2 mps 759 mmHg 67%
    11:00 +32°C° 0.3 mm 2 mps 758 mmHg 62%
    12:00 +34°C° 0.3 mm 2 mps 758 mmHg 58%
    13:00 +34°C° 0.3 mm 2 mps 757 mmHg 60%
    14:00 +32°C° 0.3 mm 2 mps 757 mmHg 63%
    15:00 +31°C° 0.3 mm 2 mps 756 mmHg 66%
    16:00 +30°C° 0.3 mm 2 mps 756 mmHg 72%
    17:00 +28°C° 0.3 mm 1 mps 757 mmHg 79%
    18:00 +26°C° 0.3 mm 1 mps 757 mmHg 85%
    19:00 +26°C° 0.6 mm 1 mps 758 mmHg 82%
    20:00 +26°C° 0.6 mm 2 mps 758 mmHg 79%
    21:00 +26°C° 0.6 mm 2 mps 758 mmHg 76%
    22:00 +26°C° 0.6 mm 2 mps 758 mmHg 77%
    23:00 +26°C° 0.6 mm 2 mps 758 mmHg 78%
    Show more